Wind_Speed
24 25 26 26 27 28 28 29 30 31 34 33 27 20 16 13 12 13 15 17 19 14 5 5 6 5 8 11 10 10 10 11 13 14 14 11 9 9 10 13 13 13 14 13 14 12 10 13 13 5 4 5 7 9 12 12 7 6 7 12 11 3 4 9 9 10 13 16 19 19 21 21 18 16 16 14 14 13 10 8 6 8 10 9 6 6 4
25 25 25 26 27 27 27 28 28 29 31 29 24 18 16 16 15 11 13 16 15 9 5 6 6 6 10 11 10 10 10 10 13 14 12 10 9 9 9 11 13 15 15 14 15 13 11 14 13 7 4 2 7 8 11 12 7 2 3 3 4 4 9 10 8 9 12 13 15 16 18 17 13 14 18 18 18 18 13 9 6 6 10 12 9 7 4
25 26 26 26 27 27 27 27 27 27 27 25 20 15 17 16 11 10 16 16 10 7 7 7 7 8 10 11 10 10 9 9 12 13 12 11 11 11 10 12 15 15 14 14 15 15 13 11 7 7 8 2 5 5 8 10 8 7 11 12 6 5 10 10 9 12 12 11 11 11 15 14 11 15 21 22 22 21 15 9 7 7 9 10 9 6 5
26 26 27 27 27 27 26 26 26 25 25 23 18 14 16 15 9 9 15 15 9 8 10 10 8 8 9 9 9 9 9 9 10 11 10 11 13 13 9 11 14 12 12 14 13 13 15 13 8 7 9 5 2 3 6 6 8 13 16 12 7 5 8 11 15 14 6 2 3 4 10 15 16 19 23 24 24 22 16 11 9 8 7 8 8 6 8
27 27 27 27 27 27 26 25 24 23 23 21 17 15 16 12 8 9 11 10 9 9 12 12 9 10 10 7 7 9 9 8 8 8 6 8 14 12 6 8 11 10 12 13 11 14 16 13 9 8 10 9 4 1 5 4 7 14 13 6 4 6 8 12 19 18 9 4 9 9 6 14 18 22 23 23 24 25 20 14 12 10 8 8 9 7 5
26 26 26 26 26 26 26 25 23 22 21 19 14 13 13 10 10 13 11 8 8 9 11 13 12 12 11 7 7 9 9 9 8 7 5 5 10 8 5 8 11 11 11 11 10 14 14 9 10 12 10 12 7 5 4 2 5 9 6 1 4 6 9 13 18 18 12 6 7 10 7 9 12 18 24 25 24 26 24 19 15 13 9 7 11 13 9
25 26 26 25 25 26 25 24 23 21 20 17 12 12 12 11 11 12 11 11 13 12 13 15 13 12 9 6 6 7 9 10 8 7 6 4 6 5 6 10 13 11 9 8 8 11 11 9 11 13 11 13 10 3 1 2 4 7 4 2 4 4 6 10 15 18 14 10 8 9 7 7 8 12 18 23 24 25 24 22 19 17 13 8 9 15 14
25 26 26 26 25 25 24 24 22 21 20 17 11 10 12 12 11 11 13 14 15 15 14 12 11 9 7 5 4 6 9 9 8 8 8 5 3 3 7 10 13 11 8 7 8 9 9 8 10 12 12 12 10 7 6 7 7 8 5 3 4 3 3 3 7 12 13 12 9 8 7 6 7 7 10 17 24 24 22 21 20 17 16 12 8 9 11
26 26 26 26 26 25 24 23 21 21 20 16 12 10 11 12 12 11 11 11 12 14 12 10 9 6 5 5 5 7 9 9 9 8 5 5 5 5 7 10 11 11 8 7 8 10 11 11 12 14 14 12 10 8 8 10 9 8 5 4 4 5 2 2 4 7 10 12 11 10 8 7 8 9 10 12 15 17 17 16 15 13 13 12 9 7 7
26 26 27 27 26 25 24 22 21 19 17 15 14 14 13 13 13 11 10 10 11 13 11 9 8 6 5 6 8 10 10 9 9 7 3 4 6 5 6 9 8 9 10 8 8 10 13 15 16 17 17 17 17 14 12 12 10 7 7 6 4 3 4 3 7 6 9 14 14 11 9 8 10 11 12 10 9 11 13 11 11 11 10 8 8 7 6
27 27 27 27 27 26 25 23 21 18 15 13 15 18 17 15 14 13 10 8 10 13 11 8 7 7 8 10 9 11 11 9 9 8 5 6 8 6 6 9 8 8 10 12 12 13 16 18 19 19 19 19 19 17 14 14 12 8 7 7 5 4 5 4 5 6 9 11 10 10 12 11 9 8 10 12 12 12 12 11 12 12 10 8 7 6 5
28 28 28 28 28 28 26 24 21 18 15 13 15 19 19 16 16 15 10 6 9 12 10 9 11 11 12 14 12 10 11 11 11 11 10 10 11 10 9 9 8 8 11 14 16 17 17 17 17 17 18 17 16 16 15 14 14 12 9 8 6 4 4 4 3 6 8 8 7 10 13 11 8 8 10 13 15 15 15 15 14 14 13 13 12 9 7
29 29 30 30 30 30 28 26 22 20 16 14 16 19 18 17 18 17 12 8 8 10 9 12 16 16 14 14 12 11 12 13 13 13 12 10 11 13 11 9 9 10 12 15 17 16 13 11 11 11 13 14 14 15 16 15 15 15 13 10 7 5 5 5 4 5 6 6 8 9 6 4 6 8 6 7 11 16 17 16 16 15 14 13 12 12 10
30 31 31 32 32 31 30 27 24 21 17 16 19 20 18 18 19 19 14 9 7 11 14 13 14 15 14 13 13 12 12 12 11 11 10 10 11 12 11 11 11 11 12 13 13 11 8 6 6 6 7 9 10 11 15 15 15 16 14 11 8 6 6 6 6 6 6 6 8 7 3 2 5 8 6 5 8 11 11 12 13 14 13 9 7 7 5
31 33 33 33 33 32 30 27 24 22 18 16 21 24 21 19 20 21 17 11 8 12 14 11 10 13 14 14 13 11 9 8 8 8 9 9 8 9 10 11 12 12 11 11 9 7 6 6 6 5 5 7 8 9 10 11 12 15 15 11 9 8 6 6 6 7 7 7 9 9 8 7 7 8 8 8 9 8 6 7 8 9 10 8 5 4 4
33 34 34 34 34 32 29 26 23 22 19 17 20 25 24 22 22 22 21 15 9 7 7 8 13 17 17 16 15 12 8 6 6 7 7 5 5 8 10 11 12 12 11 9 7 6 7 6 6 5 4 3 4 6 7 7 9 12 14 13 11 9 7 6 7 8 9 10 10 10 10 7 6 9 12 10 7 6 5 6 7 5 4 5 6 7 7
34 35 35 34 33 30 27 25 23 22 21 18 20 25 26 24 23 22 22 18 13 13 15 16 18 17 14 12 11 10 8 7 7 7 6 5 7 9 9 10 11 13 11 9 6 5 6 6 5 6 3 1 3 5 5 6 7 10 12 13 12 10 7 7 9 9 10 10 9 9 7 2 1 3 8 8 6 5 7 9 7 4 5 3 2 5 4
35 35 34 32 31 29 26 24 23 22 21 19 20 25 27 26 23 22 23 21 14 14 17 17 15 15 12 11 12 12 11 10 8 6 7 7 6 7 9 10 10 9 8 6 5 5 6 5 4 5 4 1 4 6 4 4 5 7 10 10 10 9 7 7 9 11 11 11 10 9 6 2 2 3 6 6 5 6 7 6 2 6 6 4 4 4 3
34 33 32 31 30 28 26 24 23 22 20 18 19 25 27 25 22 20 23 23 16 13 13 13 12 15 15 15 16 15 13 12 9 6 6 5 4 8 12 11 6 5 4 3 5 5 4 4 4 4 4 2 3 5 5 4 3 3 7 10 9 9 8 7 8 10 11 11 9 10 7 1 4 2 5 5 4 5 3 4 8 8 6 5 6 6 7
32 32 31 30 29 27 26 24 23 21 19 18 20 25 27 25 22 21 21 22 21 21 22 20 19 20 19 18 18 17 14 14 11 7 7 6 7 11 10 4 1 4 2 2 5 5 3 4 4 3 4 2 2 4 5 6 5 5 6 7 6 5 6 8 9 8 9 10 11 11 7 4 10 5 3 3 1 1 4 9 11 9 8 9 8 8 8
31 31 30 29 29 27 26 24 23 22 20 19 20 25 26 24 23 21 20 20 21 19 17 15 15 18 18 17 18 18 16 16 15 12 11 12 10 8 6 3 4 5 2 1 4 4 2 4 4 3 3 3 2 3 4 5 6 6 7 6 4 3 5 7 8 6 7 10 9 5 1 6 10 6 2 5 7 7 9 11 10 9 11 12 10 10 11
30 30 30 29 28 27 26 25 23 22 21 19 19 23 24 23 21 18 16 19 24 23 18 15 14 16 19 19 20 21 21 21 20 17 15 16 13 10 10 10 8 7 5 5 5 3 3 4 4 4 4 4 4 5 5 5 5 5 6 6 4 2 2 4 4 3 5 7 5 4 6 6 6 5 6 8 9 9 10 11 11 11 12 14 14 14 15
29 29 28 28 28 28 27 26 24 22 21 19 19 21 23 21 19 17 14 19 28 28 25 23 20 19 21 22 19 18 19 20 20 18 16 15 13 12 12 12 8 6 6 7 6 6 5 4 5 5 5 4 5 5 6 6 6 4 5 6 4 2 3 4 5 5 7 10 11 10 7 4 5 7 9 11 12 12 12 12 12 13 14 16 16 17 19
28 28 28 28 28 29 28 26 24 22 21 19 18 20 21 20 16 13 12 19 25 22 19 19 19 18 16 14 11 10 12 15 15 15 15 15 13 11 9 7 6 6 5 5 6 7 7 5 6 5 5 5 5 5 5 5 4 5 5 6 6 6 7 7 7 6 6 8 9 9 7 5 7 10 12 11 11 12 13 13 13 14 16 16 17 19 20
27 27 28 29 30 30 30 27 24 22 21 20 18 18 19 18 15 10 11 16 19 16 10 10 14 15 13 12 12 12 11 11 11 12 13 16 17 14 10 6 5 5 6 5 6 8 8 6 5 6 6 5 4 4 5 5 4 5 5 6 6 3 2 6 9 9 9 10 12 13 13 14 13 13 14 13 11 10 12 13 13 15 16 16 16 17 19
27 28 29 30 31 31 30 26 23 21 20 19 17 15 15 15 13 9 10 13 14 11 8 9 12 12 11 12 13 11 11 11 11 11 12 14 16 17 16 13 10 9 9 8 8 9 9 7 5 6 6 5 5 5 6 6 7 7 7 8 8 5 3 5 8 9 10 12 15 16 17 17 16 17 17 14 11 11 12 13 14 16 16 17 17 17 17
28 29 30 31 31 29 24 20 18 18 16 14 11 9 9 11 10 8 12 15 12 7 6 8 8 8 10 14 15 12 13 14 14 14 14 15 16 16 16 16 15 13 12 11 10 9 9 7 7 7 7 7 8 8 9 9 9 9 8 9 10 9 8 8 8 8 9 10 12 13 12 11 11 14 15 12 9 11 13 14 15 16 16 18 20 20 19
29 30 31 30 28 22 17 15 15 14 12 10 7 3 3 4 5 4 8 14 13 7 6 7 8 8 11 13 11 9 11 13 14 15 16 15 16 16 16 17 17 15 13 11 10 8 7 7 7 8 8 8 8 8 9 10 10 9 9 10 12 11 10 10 9 10 11 12 14 14 12 11 13 17 18 15 12 14 16 16 17 17 17 18 19 20 22
30 30 30 27 21 14 12 14 14 13 11 9 7 7 5 4 4 2 2 8 12 11 8 9 9 8 8 8 6 6 8 10 11 12 13 13 14 15 16 17 16 15 14 13 11 9 8 9 11 11 9 7 6 6 7 9 8 9 11 14 15 15 15 15 16 15 15 17 19 17 15 15 18 21 22 19 16 17 18 19 19 18 17 17 18 18 20
29 28 27 21 13 10 12 14 13 10 9 9 9 5 3 3 4 4 1 3 8 10 8 6 5 6 8 8 7 7 8 8 10 12 13 14 14 14 14 15 14 13 13 13 12 11 10 10 12 13 12 10 8 5 5 7 8 9 14 17 17 17 18 19 20 19 19 20 21 19 19 20 21 22 23 22 19 19 21 22 21 20 19 19 19 19 19
27 25 21 14 10 10 13 13 10 9 10 11 9 4 1 2 4 4 1 2 5 7 7 6 7 8 8 6 5 5 6 7 9 12 13 14 14 13 13 12 12 12 12 12 12 12 11 10 10 11 12 11 8 6 7 9 9 10 15 17 15 14 15 16 17 19 20 21 21 21 22 23 23 23 23 23 21 20 22 23 21 20 19 19 18 19 21
24 20 15 10 9 11 13 11 11 11 10 10 9 7 4 3 4 2 1 4 5 5 5 5 5 6 4 2 1 4 5 6 8 10 11 11 12 12 12 13 13 12 12 11 9 8 10 12 12 12 12 10 7 7 8 9 10 14 19 19 17 16 17 18 18 20 21 22 21 20 21 24 26 26 25 24 22 21 22 22 19 18 18 19 19 19 21
18 14 10 8 9 12 12 12 14 14 12 10 10 9 7 5 4 4 4 6 6 4 5 4 4 4 3 4 4 1 2 4 6 8 9 9 9 10 11 13 13 13 12 10 7 5 8 10 11 11 12 9 5 4 6 9 15 22 26 27 27 27 27 26 26 26 26 26 25 23 23 26 27 27 27 27 25 24 24 22 20 19 18 19 18 18 20
13 10 9 9 10 12 14 16 16 15 12 9 8 9 9 8 8 7 6 5 3 2 2 3 4 3 4 5 2 2 2 3 4 4 4 6 8 8 8 9 10 9 10 11 9 8 8 8 8 8 8 7 5 5 7 10 16 24 29 32 34 35 35 34 34 32 30 29 29 28 29 29 29 28 29 28 27 26 25 23 21 20 19 19 18 18 19
10 10 10 10 10 14 19 19 15 10 7 5 5 7 8 9 9 9 6 3 1 1 1 2 3 3 4 4 1 4 5 6 4 1 1 3 6 5 4 5 6 5 5 7 9 9 6 4 5 5 4 3 4 5 5 10 19 26 31 36 38 38 36 35 36 35 32 29 28 28 27 28 29 30 31 30 29 28 27 25 24 22 21 21 20 19 19
10 11 11 9 10 14 17 17 13 8 4 3 4 6 7 7 8 8 6 3 2 2 1 3 3 3 4 3 3 6 8 7 5 4 3 1 2 2 1 2 3 3 3 4 5 5 4 4 4 4 3 1 3 6 11 19 27 31 36 40 41 38 37 38 38 37 34 32 32 32 30 29 30 32 33 33 32 30 28 26 25 23 22 23 22 20 18
9 11 11 10 9 10 11 12 14 12 7 4 4 4 5 6 6 5 4 3 2 1 1 2 2 3 4 3 4 7 8 6 5 4 3 3 3 1 1 1 2 1 2 3 2 4 8 8 4 3 2 2 7 15 24 30 33 34 36 37 34 31 32 35 35 35 35 35 36 36 35 34 33 33 33 34 33 31 29 27 25 23 22 24 24 21 19
9 13 13 11 9 7 8 12 15 13 8 5 4 3 1 2 2 2 1 1 1 1 1 1 1 2 3 3 5 8 7 5 5 4 4 4 4 1 2 1 2 2 3 2 2 6 9 6 2 2 4 5 13 24 30 34 36 36 36 36 31 25 25 27 27 29 30 31 31 31 31 33 34 34 32 33 33 31 28 26 24 22 23 24 23 21 20
10 12 11 10 9 9 9 11 12 11 9 7 5 3 2 2 1 1 1 1 1 2 2 2 2 1 2 2 5 7 6 4 5 4 4 5 5 2 2 3 3 3 3 2 3 6 6 2 1 3 4 6 16 28 35 38 41 42 42 41 34 23 16 18 24 29 31 30 30 31 30 29 31 33 32 30 29 29 28 26 24 23 24 24 23 22 22
10 9 7 8 10 10 10 12 13 13 10 6 5 4 1 1 2 2 1 0 0 1 1 1 1 1 2 3 3 6 6 5 5 4 4 4 4 2 1 2 3 4 3 2 4 6 5 2 3 5 5 9 19 30 36 39 42 45 47 47 41 31 19 10 11 19 26 30 32 32 29 25 25 28 30 28 27 27 26 25 24 23 23 23 24 24 21
11 8 6 8 10 9 10 12 13 11 9 6 4 4 4 5 4 4 4 5 4 3 2 1 0 1 1 3 2 3 5 4 2 2 3 4 4 3 2 1 2 2 3 4 7 6 3 3 4 6 9 17 26 32 36 39 42 47 50 51 47 38 29 22 16 10 12 18 21 19 17 15 17 21 25 25 24 23 23 24 24 23 22 24 25 22 18
12 9 8 8 9 8 8 10 10 8 7 7 6 4 4 5 5 5 6 5 4 6 7 6 3 3 3 1 1 1 3 3 1 2 2 3 2 3 2 1 1 3 4 5 7 5 4 6 7 8 14 26 33 34 36 40 43 46 49 51 49 43 39 38 33 23 11 3 3 5 6 7 10 13 17 19 20 20 21 22 22 20 20 21 21 18 17
15 14 11 8 8 6 5 7 10 7 3 4 5 4 4 6 5 4 4 2 3 7 11 10 6 2 3 3 2 1 2 2 1 2 0 1 1 1 2 3 4 3 2 3 5 6 8 8 8 10 19 31 37 37 37 40 42 44 47 51 52 49 49 51 48 41 33 26 17 11 9 9 8 9 10 12 15 16 17 17 18 19 18 18 18 19 21
16 15 11 7 6 6 4 5 8 7 3 3 5 6 6 7 7 6 5 4 4 7 10 12 10 6 5 5 3 1 1 2 2 1 1 2 2 3 3 4 4 3 2 2 5 7 7 7 9 14 22 32 38 39 38 38 40 42 45 50 54 55 56 57 54 49 46 43 38 31 26 21 18 15 13 13 13 13 13 14 16 17 19 21 24 26 26
11 10 8 5 5 6 4 2 5 7 5 5 6 6 7 7 7 6 7 8 8 8 10 13 13 11 8 5 3 2 4 4 3 2 3 4 4 5 5 5 4 5 4 5 7 7 8 9 12 18 25 32 36 38 37 36 37 40 42 46 50 53 55 57 56 52 49 48 48 45 41 36 32 28 26 24 23 23 23 22 21 24 29 31 30 30 31
7 9 8 4 4 7 6 3 4 6 7 7 9 9 9 9 9 8 9 11 10 9 10 11 11 11 10 7 5 7 9 7 4 4 5 5 5 6 6 5 5 5 6 7 8 8 9 10 13 19 25 29 32 36 37 36 37 38 40 42 44 46 48 52 54 53 52 51 51 49 47 44 43 43 42 38 35 35 36 37 37 38 39 36 33 33 36
7 8 7 4 4 7 8 7 7 9 10 12 13 14 13 12 12 12 12 12 10 8 7 6 6 7 8 7 6 6 8 7 6 6 7 5 4 5 5 5 5 5 5 7 7 7 7 11 16 20 24 26 29 33 37 38 38 38 38 39 40 41 42 43 45 47 49 51 51 49 47 46 47 49 49 46 44 44 46 47 46 46 45 42 40 40 41
7 6 5 4 4 5 7 8 9 11 13 15 15 16 16 15 15 15 15 14 12 9 8 8 5 4 4 6 6 5 6 6 6 6 6 5 3 3 4 4 5 4 4 5 6 6 8 14 19 21 23 25 27 30 33 35 37 37 38 38 39 39 39 39 40 41 43 44 44 45 45 46 48 49 49 48 47 48 48 49 49 48 46 45 44 44 43
10 9 8 7 6 8 11 12 10 11 14 16 16 17 17 16 16 17 18 16 13 10 8 8 7 5 4 5 5 5 6 6 5 4 5 5 5 4 4 4 4 5 4 4 4 6 11 17 20 20 22 25 26 27 28 30 32 34 35 36 37 38 37 36 36 38 39 39 39 40 41 42 44 45 45 47 47 46 46 46 47 44 42 41 42 42 42
12 12 12 11 9 9 11 12 9 9 13 16 17 18 18 18 18 19 20 18 15 11 7 7 7 6 5 5 4 4 5 5 4 4 5 6 5 5 5 5 4 3 3 4 6 9 13 17 19 19 21 24 25 25 26 27 28 30 31 32 33 35 34 33 33 34 34 35 36 37 38 39 40 40 41 41 41 41 41 42 42 40 36 35 35 36 36
10 11 13 14 13 11 11 11 9 9 11 14 16 17 18 18 19 20 20 18 15 11 8 8 7 5 5 5 4 3 4 5 5 5 5 5 4 4 5 6 5 3 3 5 9 12 14 15 17 19 20 23 24 25 25 25 25 27 28 28 29 31 31 31 31 31 31 32 33 34 35 35 36 36 36 36 36 37 38 38 37 36 34 33 32 32 32
9 10 11 14 14 14 14 13 12 12 13 14 16 16 17 17 19 19 19 17 14 11 10 10 8 5 5 5 5 3 3 4 5 6 6 5 5 4 4 6 8 8 7 8 11 12 13 15 17 18 19 20 22 23 23 24 24 25 26 26 27 28 28 28 28 28 29 30 32 32 32 33 33 33 33 32 32 33 33 32 31 31 31 31 31 31 30
Wind_Direction
359 357 355 356 357 357 357 357 357 359 359 359 0 351 339 338 329 333 347 345 339 335 328 355 345 346 356 337 333 349 339 336 345 340 341 339 323 316 303 297 300 298 298 297 285 282 278 264 259 272 32 46 32 357 338 330 302 250 225 211 200 193 272 250 226 198 200 203 194 197 210 208 202 206 209 208 205 202 209 211 192 193 204 204 212 229 166
356 354 352 353 355 356 357 356 357 0 2 1 360 353 343 331 318 329 351 345 338 340 345 352 346 343 343 332 336 346 338 345 348 338 345 352 331 321 313 309 316 310 307 310 298 288 281 262 252 268 300 36 46 354 335 342 329 313 349 284 207 205 224 227 232 208 192 195 191 191 204 211 208 203 204 211 210 203 208 215 206 202 201 195 198 217 183
356 354 352 352 353 355 356 356 357 359 2 5 0 344 333 332 326 338 348 342 337 347 349 340 334 336 335 330 335 337 335 351 352 338 342 354 341 327 318 320 321 310 302 304 296 282 274 270 274 289 281 272 58 357 330 344 353 4 348 326 312 249 219 211 222 213 192 190 196 191 194 202 212 206 201 207 211 206 204 208 212 210 194 194 206 199 132
355 354 353 352 352 354 356 357 357 358 360 3 2 341 328 331 335 344 344 338 335 344 340 331 330 335 332 330 333 329 327 343 350 341 341 358 350 330 322 328 323 319 319 309 292 283 279 268 262 289 288 274 90 19 324 339 2 345 327 311 300 258 225 221 227 226 215 222 275 249 203 199 206 207 201 203 208 208 207 208 210 206 188 196 215 191 135
353 351 349 349 349 351 355 356 357 358 358 360 358 343 332 332 335 342 342 334 332 336 332 330 333 326 321 326 326 324 326 331 338 335 336 5 358 335 323 338 329 330 334 317 302 307 300 276 268 300 309 310 325 281 291 338 358 328 314 301 287 258 229 225 229 235 251 312 337 330 247 210 209 208 204 202 205 207 209 213 205 196 196 197 203 214 171
350 348 346 345 344 344 349 354 356 356 356 359 355 341 338 336 329 335 336 322 320 325 323 324 319 307 308 316 311 313 323 326 331 335 326 7 19 356 327 336 332 329 331 321 315 324 325 328 344 349 339 321 302 209 207 31 5 327 314 288 294 263 230 225 225 231 241 254 304 312 276 241 234 220 208 202 202 205 208 213 207 198 210 202 185 203 214
346 346 344 343 341 339 341 346 351 353 353 355 347 330 330 330 322 327 329 315 309 308 309 311 307 303 307 308 303 312 320 323 332 335 318 343 38 10 318 324 328 323 323 322 320 328 339 353 353 347 334 319 311 270 174 66 15 342 333 315 316 277 233 234 226 226 234 233 251 283 287 277 263 236 216 206 204 205 206 210 209 203 214 214 180 192 206
342 342 342 341 340 337 334 336 342 347 349 350 339 317 319 326 324 323 320 312 305 304 306 306 302 301 297 293 316 325 314 318 332 329 315 322 3 331 300 314 322 316 314 311 301 312 326 328 325 322 320 322 327 341 359 6 358 342 335 348 325 262 228 278 246 234 234 225 227 254 273 267 261 263 247 221 207 203 204 207 207 204 207 203 172 175 199
338 338 338 338 338 336 332 329 330 336 343 344 332 312 310 315 313 312 311 308 307 307 306 302 298 297 295 303 326 321 309 317 326 319 309 309 313 306 299 309 314 309 304 297 289 299 307 304 302 301 302 308 309 315 330 333 335 332 332 349 318 269 281 309 246 239 235 221 216 228 241 257 265 258 247 227 210 202 203 205 206 205 203 197 182 178 190
333 334 334 334 334 333 330 326 321 323 332 335 321 307 306 309 306 303 301 297 301 304 302 297 298 302 314 317 310 304 306 316 315 308 292 259 254 248 280 298 301 301 302 302 298 298 296 292 292 290 289 291 289 289 295 298 303 316 321 322 312 301 315 259 216 223 232 219 213 218 229 245 250 233 217 215 217 212 208 206 211 213 210 204 198 199 198
329 330 330 330 330 329 327 323 317 310 310 317 311 303 303 304 300 299 298 287 293 302 303 301 301 301 305 307 303 302 304 306 304 306 310 292 271 253 270 287 286 289 297 301 300 297 292 288 284 279 275 275 277 280 283 282 284 292 299 304 311 313 303 273 226 222 222 205 198 215 224 225 224 215 213 217 219 220 218 215 216 217 219 225 221 215 213
325 326 327 327 327 326 324 320 314 302 294 294 297 298 300 297 289 287 285 276 291 301 299 296 302 307 305 300 298 301 302 302 304 301 299 301 298 291 287 283 279 286 295 298 301 302 297 289 281 271 261 256 258 264 268 269 271 272 269 276 292 301 283 270 258 244 218 169 161 209 224 230 226 216 226 232 226 225 229 231 229 222 221 227 230 230 226
322 323 325 325 324 324 322 319 312 300 288 278 281 290 297 293 282 277 277 275 283 293 296 297 299 300 300 298 299 300 297 297 298 293 288 291 295 297 298 292 285 292 298 302 304 304 301 292 282 270 254 243 241 245 249 250 254 256 254 254 265 283 276 249 239 260 244 184 179 205 225 256 230 206 218 251 234 221 222 228 231 229 226 226 227 228 226
321 322 322 322 322 321 320 317 312 303 290 274 272 280 290 290 277 268 268 270 274 288 295 296 297 299 302 304 305 304 300 296 294 290 290 293 293 296 301 300 296 298 300 301 301 295 290 284 277 264 240 229 229 233 235 235 236 237 237 236 239 255 270 251 225 235 249 225 203 196 176 176 198 190 196 232 230 220 224 230 226 224 230 234 228 229 229
319 320 320 320 320 319 317 314 310 305 297 281 271 271 275 281 277 265 258 258 272 287 285 281 294 307 309 308 306 305 303 302 302 298 291 288 289 294 300 301 300 300 297 294 291 283 277 279 276 256 214 206 217 224 221 216 215 219 222 222 220 227 242 249 235 226 230 230 218 209 208 209 199 185 187 209 221 215 221 242 230 215 217 218 216 234 251
318 318 318 319 319 318 315 312 309 306 303 292 277 272 271 274 273 260 248 247 260 271 273 297 312 307 300 298 299 299 301 306 315 310 293 286 302 305 304 302 299 298 295 287 281 275 270 271 271 259 230 209 233 224 205 201 199 196 202 205 204 211 228 241 243 231 219 220 223 220 220 222 207 185 179 186 196 177 175 217 221 198 175 188 219 241 248
318 318 318 319 318 317 313 311 310 308 304 295 281 276 274 274 270 258 245 240 240 248 263 289 304 298 290 295 299 300 305 307 307 305 301 309 317 309 305 308 302 295 290 281 269 265 265 269 272 265 263 319 285 244 207 211 207 183 183 194 196 199 210 218 225 226 219 220 225 222 220 238 359 164 159 156 159 161 183 195 178 109 68 76 241 255 252
319 318 318 318 318 316 313 311 308 304 302 295 281 276 276 276 271 257 241 233 235 252 263 272 283 286 287 298 300 300 305 303 299 301 297 295 308 315 308 305 302 299 302 297 279 269 270 278 282 273 271 290 278 267 241 232 227 185 176 186 191 195 202 209 218 222 222 223 225 222 213 162 90 114 119 125 148 170 188 189 87 26 9 20 4 331 351
319 318 318 319 318 316 313 310 307 303 301 295 282 277 278 280 276 257 235 227 231 249 252 246 260 279 287 290 290 289 291 291 290 297 292 287 339 328 300 289 296 314 320 296 278 274 269 280 294 286 276 266 269 280 277 264 263 191 183 195 197 192 196 205 216 222 220 218 222 225 218 107 40 85 123 130 170 173 175 324 337 330 321 353 357 344 355
320 318 319 320 319 318 314 310 307 305 301 294 285 280 280 282 282 270 249 234 233 248 258 256 258 268 275 278 280 282 286 284 280 281 282 293 335 326 298 274 341 317 278 246 288 299 290 282 293 281 271 285 315 295 280 259 242 216 208 220 221 206 205 206 205 216 223 219 220 222 214 37 20 15 120 101 54 48 359 340 335 336 341 348 342 339 353
320 319 321 322 321 320 316 311 308 304 299 295 288 283 284 285 284 281 271 250 237 244 260 261 253 256 259 261 266 273 280 282 281 285 286 288 301 307 297 313 322 300 302 341 301 302 311 300 304 306 292 299 300 287 286 269 240 216 211 229 240 235 237 221 200 198 217 215 210 213 255 13 7 355 37 39 21 10 354 340 337 345 351 352 345 337 343
321 322 323 324 323 322 318 313 310 307 304 301 293 286 288 290 289 292 284 254 239 242 253 257 252 252 253 254 259 265 269 272 274 276 280 282 283 277 278 291 295 289 305 311 291 293 324 310 307 319 315 299 286 288 292 274 249 214 202 218 225 210 274 285 264 260 269 254 259 325 345 349 348 344 6 12 355 343 342 340 337 341 347 352 347 335 335
325 326 326 326 325 324 320 315 313 310 307 306 299 290 290 292 294 298 283 245 236 243 257 264 268 269 265 263 267 271 268 264 261 258 259 266 274 273 269 274 280 284 291 295 300 314 323 310 312 321 319 309 305 305 290 262 252 243 222 227 251 267 278 299 296 291 295 285 273 277 290 304 312 315 332 342 330 322 330 336 337 339 342 343 342 335 332
329 329 330 329 327 325 322 318 315 311 307 304 299 292 290 290 292 289 260 231 228 239 258 261 258 260 261 260 267 276 265 253 249 247 241 240 249 262 264 266 277 284 281 288 304 305 302 303 305 298 294 309 320 309 287 269 277 295 274 248 246 243 238 249 260 264 276 276 264 258 263 288 313 313 311 309 305 310 323 329 333 337 338 336 337 335 331
333 333 332 330 327 324 323 320 315 310 306 302 298 292 287 287 288 277 245 224 221 230 250 255 247 249 257 264 268 268 255 241 238 239 232 230 237 247 256 271 288 285 287 298 300 291 290 295 294 283 285 310 326 302 285 287 299 307 291 263 255 255 247 251 251 247 249 257 265 276 284 290 295 294 286 285 294 311 320 323 327 330 329 329 330 331 330
335 334 331 328 326 325 324 324 319 313 308 304 299 293 287 286 286 269 237 221 215 220 240 261 263 260 259 264 267 258 239 231 235 240 239 236 238 243 253 266 272 272 279 283 278 278 282 282 282 283 284 300 312 294 288 298 298 286 273 264 266 279 292 265 255 253 251 250 257 270 282 285 280 272 269 277 302 322 318 315 317 318 319 323 324 324 325
334 332 330 328 328 330 332 334 329 321 318 317 311 301 293 289 286 262 228 213 206 213 240 252 264 272 269 269 271 261 243 239 242 248 249 246 243 243 248 255 260 264 267 267 266 270 273 269 272 274 273 288 299 288 280 285 283 274 268 262 258 255 252 249 249 250 248 244 245 254 265 272 274 275 277 288 313 321 314 312 313 312 313 317 320 319 316
333 332 331 331 334 340 348 349 343 338 339 344 352 14 360 323 307 276 232 218 217 237 276 277 276 284 286 284 278 258 242 241 243 246 247 244 241 241 241 245 252 257 257 259 262 262 254 256 267 270 272 285 289 276 270 272 267 264 265 256 248 249 251 249 250 251 252 253 251 250 257 275 287 290 292 297 305 306 301 300 301 304 306 309 313 316 312
335 334 334 336 343 356 3 356 352 352 354 10 47 72 64 39 31 24 233 222 225 238 271 290 283 279 289 296 283 252 244 243 238 237 239 240 238 237 238 243 247 250 254 258 261 259 257 261 264 265 272 289 294 282 275 270 259 258 264 261 255 254 253 251 254 261 265 265 261 258 260 267 273 279 281 284 290 294 293 291 291 293 297 299 300 304 305
336 336 338 343 356 12 5 358 0 6 17 39 59 77 102 71 35 20 7 217 221 227 246 279 287 293 303 298 279 262 253 242 235 235 238 241 241 238 237 240 242 247 253 256 257 265 273 271 266 266 269 271 273 275 275 273 268 270 274 273 267 260 253 248 247 251 257 261 262 265 267 267 268 273 274 275 278 282 282 283 284 285 288 291 292 292 293
337 338 343 354 15 18 7 7 17 32 43 48 41 24 26 32 4 349 349 170 191 210 236 266 284 299 305 292 260 256 255 245 241 240 238 239 240 236 231 231 234 236 240 247 255 265 271 271 273 277 277 269 262 265 272 277 280 278 278 277 273 265 262 259 254 253 256 259 261 262 260 260 261 263 263 263 266 270 271 273 276 278 281 284 284 284 286
339 343 353 12 27 18 14 25 43 54 60 58 52 53 55 22 354 353 106 140 158 193 236 269 289 298 304 315 280 263 255 251 250 248 243 238 234 229 226 226 228 229 234 246 259 262 261 263 267 274 280 278 270 270 273 271 269 272 278 285 288 286 282 277 270 266 261 258 258 258 256 253 252 253 257 260 263 265 266 268 271 274 277 279 279 279 280
345 355 11 29 28 19 24 43 52 55 56 53 49 53 51 40 47 78 114 133 149 191 239 274 300 303 315 329 325 270 230 250 251 247 248 239 225 222 224 225 229 232 229 230 237 246 254 260 263 268 274 273 261 265 269 258 258 268 279 286 289 288 285 281 276 273 267 260 256 255 255 255 254 254 257 260 262 263 263 264 268 271 271 272 274 274 272
356 11 27 33 28 26 35 44 43 40 43 41 30 27 34 52 73 91 113 128 138 202 246 282 299 301 310 309 296 112 61 310 259 239 255 241 225 225 221 215 224 233 222 218 230 246 254 263 271 273 271 260 245 251 258 260 269 279 284 285 284 282 281 278 273 268 265 261 257 255 256 259 259 257 255 256 257 258 257 258 262 264 263 265 269 269 265
10 28 34 33 33 36 40 41 36 31 35 34 16 18 36 59 75 87 103 111 65 342 291 294 297 307 319 319 51 65 11 327 297 324 347 238 222 224 210 198 214 222 211 222 241 247 251 274 284 275 266 248 237 241 267 291 296 294 288 283 281 278 275 271 267 263 260 258 257 257 257 258 257 253 251 251 252 251 251 253 255 255 256 260 261 261 258
27 39 38 37 41 45 45 39 28 15 7 360 7 26 43 59 70 81 91 85 52 41 321 294 295 318 328 335 14 5 346 336 344 10 34 75 239 242 209 213 227 219 218 243 252 256 275 297 291 271 264 253 254 278 297 298 293 287 282 280 279 276 269 263 261 260 258 257 256 257 259 259 257 253 250 250 249 247 247 250 248 245 247 252 253 251 250
43 46 41 37 42 52 49 26 8 360 357 353 355 17 40 53 59 66 68 52 39 32 312 294 307 327 320 306 332 343 343 345 352 6 51 46 1 341 150 292 303 292 275 264 268 302 300 293 282 271 263 267 290 299 301 298 293 291 293 295 295 286 273 264 258 255 255 255 255 255 255 253 252 250 248 245 243 242 242 242 239 237 239 242 242 240 238
56 44 34 26 29 39 30 7 358 357 3 4 344 332 8 60 39 24 46 42 337 284 277 267 279 315 312 305 340 354 351 340 345 8 46 27 3 55 110 8 336 329 309 281 300 320 309 291 255 264 270 287 306 313 317 318 319 322 327 328 323 303 277 262 253 249 250 251 250 248 247 243 241 240 239 237 235 234 233 232 231 230 232 235 235 231 229
55 37 26 26 33 32 19 7 4 5 6 356 326 295 232 193 287 319 171 172 216 224 228 254 263 276 283 302 351 4 358 344 354 12 27 20 16 39 52 7 344 324 316 314 341 338 327 290 237 296 301 315 326 332 338 341 342 346 351 351 346 332 298 264 248 242 243 246 247 246 245 241 233 228 225 226 227 226 224 223 223 223 226 229 227 222 221
56 40 32 38 41 32 18 14 13 10 3 343 306 298 326 44 3 342 323 325 357 165 189 244 247 211 239 271 346 10 11 10 12 5 10 23 20 4 10 12 347 331 336 351 347 343 336 301 308 332 337 333 335 341 347 350 352 355 358 0 3 7 7 346 284 256 249 249 252 253 250 243 231 222 218 218 220 220 217 217 218 219 219 219 216 212 210
49 48 42 42 41 33 25 20 12 3 4 1 337 332 15 31 23 12 12 11 10 3 342 324 98 121 231 247 263 337 357 12 9 336 352 23 13 354 19 20 315 335 22 356 333 333 336 331 343 355 343 335 340 348 354 358 360 1 3 7 10 15 25 31 23 342 277 256 253 251 244 234 228 222 217 213 212 212 211 211 213 212 208 206 207 204 192
46 48 44 39 34 28 26 24 13 0 3 8 360 354 14 20 20 29 33 26 359 339 341 350 24 57 51 67 212 299 352 14 329 276 338 32 22 1 20 26 348 30 32 336 320 336 9 2 359 355 341 340 346 353 359 3 5 5 7 11 14 20 33 44 47 45 44 35 247 229 206 199 204 206 204 201 202 207 209 207 204 200 196 197 199 191 170
47 44 40 32 18 10 14 18 14 12 16 4 355 358 11 13 15 32 39 23 326 339 349 351 351 24 61 54 33 343 360 6 322 270 301 66 50 348 33 44 28 18 350 308 335 12 25 13 359 345 342 347 353 357 1 6 9 10 11 14 18 24 35 45 50 54 60 64 66 75 91 103 120 146 167 178 186 193 192 182 176 179 184 186 181 169 157
37 32 31 26 12 9 10 3 3 11 36 24 7 7 8 10 16 28 27 12 2 8 7 358 349 360 41 43 10 331 63 23 350 319 44 64 53 35 37 41 27 5 348 12 22 24 22 9 353 345 348 354 359 1 5 10 12 11 13 18 23 27 34 41 44 46 52 57 61 64 70 78 87 98 116 132 140 140 134 132 143 157 159 151 147 147 146
25 21 23 27 20 19 22 4 360 14 29 27 16 13 10 9 14 17 8 4 14 31 30 14 2 4 17 20 2 24 48 47 42 31 26 36 48 45 38 36 31 28 34 39 31 23 19 9 355 349 351 356 0 6 11 14 15 15 17 21 24 28 33 39 41 40 43 50 56 59 62 68 75 80 91 102 109 111 115 118 125 131 130 124 123 128 132
36 27 18 15 25 31 37 39 17 22 29 24 17 17 15 15 18 13 360 357 8 25 30 26 20 14 7 2 13 31 34 35 44 37 24 32 51 47 37 35 35 33 37 40 33 22 13 1 351 349 353 356 1 8 13 16 18 20 21 21 23 26 32 39 42 42 42 46 50 52 54 60 67 71 76 82 86 92 101 107 109 112 113 107 100 103 110
48 33 22 19 27 34 40 41 33 32 31 23 18 19 19 19 22 18 4 353 350 350 352 7 29 31 17 10 22 38 36 36 37 29 26 38 59 46 36 37 37 30 28 28 26 20 8 360 356 357 359 1 2 8 13 17 19 22 23 23 23 26 30 36 42 45 45 47 50 49 49 53 59 64 68 70 71 75 85 93 95 96 95 91 86 87 92
32 20 27 41 41 34 32 29 30 35 34 25 18 18 19 19 19 15 4 353 349 346 340 339 348 8 21 24 28 32 33 37 42 39 38 45 49 34 29 35 39 36 24 15 12 12 12 11 8 6 6 6 5 6 11 15 18 20 22 24 25 27 31 35 41 45 47 50 52 52 51 53 56 58 61 63 64 66 73 80 84 86 86 84 83 84 84
36 27 31 43 53 45 31 21 20 29 31 24 18 16 15 16 15 10 1 354 353 355 355 352 350 347 356 13 27 34 30 26 31 45 47 46 44 40 31 25 28 33 24 11 9 10 10 11 12 12 10 9 8 8 10 13 16 20 23 24 25 27 31 35 40 45 48 50 53 56 58 60 61 61 60 61 62 65 69 74 78 81 81 80 80 80 80
45 40 37 35 37 35 27 22 23 26 23 20 17 14 10 10 11 7 359 355 355 360 7 13 16 14 8 6 22 44 38 26 29 45 45 41 44 47 38 29 30 36 22 7 13 16 13 10 11 13 12 11 10 11 11 13 15 19 21 23 24 27 29 31 37 44 49 50 53 58 62 63 63 64 65 66 69 72 74 76 79 81 82 81 80 79 79
48 50 45 38 33 28 23 23 26 26 19 17 15 11 7 7 8 4 358 356 1 9 18 18 16 21 26 22 21 29 28 27 39 51 47 37 34 36 35 32 31 37 36 23 19 18 17 15 14 14 13 13 12 12 13 15 17 18 20 22 24 26 28 29 33 40 48 52 54 57 59 61 64 68 72 75 76 76 75 76 79 83 85 85 85 84 83
39 47 49 43 36 30 26 23 22 21 19 17 14 9 6 7 5 0 358 2 9 16 19 17 17 27 34 23 14 17 28 33 37 41 42 39 29 17 17 20 14 11 18 27 24 18 18 19 17 16 14 14 14 14 14 16 18 20 21 22 25 27 28 30 32 36 42 48 51 54 56 60 65 70 72 73 73 72 71 72 78 83 86 87 88 89 89
Height
1550 1547 1544 1541 1538 1536 1532 1529 1526 1522 1518 1513 1511 1511 1509 1505 1501 1498 1497 1495 1493 1489 1485 1482 1480 1478 1480 1480 1477 1476 1476 1474 1473 1472 1472 1470 1468 1465 1462 1457 1452 1445 1438 1433 1428 1423 1416 1409 1400 1392 1393 1400 1406 1407 1405 1400 1395 1391 1389 1385 1381 1384 1389 1387 1378 1371 1368 1366 1365 1367 1369 1371 1379 1383 1379 1381 1386 1388 1395 1400 1400 1407 1412 1409 1416 1424 1407
1550 1547 1544 1541 1539 1536 1533 1530 1527 1524 1521 1517 1514 1513 1511 1507 1502 1498 1497 1496 1493 1491 1488 1485 1483 1481 1481 1480 1477 1477 1476 1475 1475 1474 1473 1472 1471 1468 1464 1462 1461 1455 1447 1441 1434 1429 1424 1411 1399 1399 1402 1404 1408 1410 1406 1402 1397 1395 1395 1391 1387 1388 1390 1390 1388 1383 1380 1378 1376 1376 1374 1373 1375 1377 1377 1379 1379 1382 1388 1389 1393 1404 1406 1403 1416 1423 1405
1550 1547 1545 1542 1539 1536 1533 1531 1528 1525 1523 1520 1517 1516 1512 1506 1500 1497 1498 1496 1494 1493 1490 1489 1487 1483 1482 1481 1479 1479 1477 1477 1478 1476 1474 1474 1474 1472 1467 1465 1464 1458 1452 1447 1439 1432 1427 1417 1408 1407 1406 1404 1409 1411 1408 1405 1401 1399 1401 1398 1393 1391 1387 1388 1392 1389 1389 1391 1386 1380 1376 1374 1373 1372 1374 1378 1377 1381 1388 1392 1400 1409 1403 1399 1407 1410 1399
1550 1547 1545 1542 1539 1537 1534 1531 1529 1527 1524 1521 1519 1517 1513 1507 1500 1498 1498 1496 1495 1494 1492 1491 1488 1485 1484 1484 1481 1480 1478 1477 1479 1478 1476 1476 1476 1474 1471 1468 1466 1461 1457 1453 1444 1434 1427 1421 1416 1415 1412 1406 1407 1410 1410 1407 1405 1404 1404 1399 1396 1393 1387 1385 1385 1380 1381 1388 1383 1371 1368 1373 1375 1372 1372 1376 1376 1378 1384 1392 1401 1403 1403 1404 1401 1396 1398
1549 1547 1544 1542 1539 1537 1534 1532 1529 1527 1525 1523 1520 1518 1514 1509 1504 1502 1502 1499 1496 1494 1493 1492 1490 1487 1486 1485 1483 1481 1480 1478 1478 1478 1477 1478 1478 1475 1472 1471 1468 1466 1464 1459 1450 1441 1432 1424 1421 1422 1420 1413 1409 1411 1411 1408 1408 1406 1403 1399 1398 1398 1393 1387 1383 1379 1379 1384 1383 1374 1369 1370 1372 1372 1372 1374 1375 1377 1382 1390 1391 1392 1402 1410 1399 1392 1400
1548 1546 1544 1541 1539 1537 1534 1532 1530 1527 1526 1524 1522 1520 1516 1512 1509 1507 1507 1504 1498 1496 1495 1493 1492 1489 1485 1484 1483 1481 1480 1479 1478 1478 1478 1479 1481 1479 1475 1473 1471 1469 1469 1465 1458 1451 1442 1437 1437 1436 1432 1425 1415 1410 1409 1409 1409 1407 1403 1401 1400 1401 1397 1388 1384 1383 1381 1383 1385 1380 1375 1372 1371 1369 1368 1369 1373 1376 1380 1384 1383 1385 1398 1403 1395 1395 1401
1547 1545 1543 1541 1538 1536 1534 1532 1530 1528 1526 1524 1523 1521 1518 1515 1512 1510 1510 1507 1501 1498 1496 1494 1492 1488 1484 1485 1484 1482 1480 1479 1478 1478 1479 1478 1481 1484 1481 1477 1473 1470 1470 1470 1467 1463 1457 1454 1454 1448 1442 1435 1424 1415 1413 1412 1411 1408 1406 1404 1403 1403 1399 1389 1384 1385 1383 1384 1386 1383 1380 1379 1374 1369 1365 1365 1369 1372 1376 1379 1379 1382 1390 1390 1388 1396 1397
1546 1544 1542 1540 1538 1536 1533 1531 1529 1527 1526 1524 1523 1522 1519 1517 1515 1513 1512 1508 1502 1498 1495 1494 1491 1487 1484 1484 1483 1481 1480 1479 1477 1477 1477 1478 1480 1482 1481 1477 1474 1471 1471 1472 1470 1466 1463 1463 1460 1453 1448 1442 1434 1430 1427 1422 1417 1413 1409 1407 1406 1405 1401 1393 1390 1391 1388 1386 1387 1386 1385 1384 1380 1375 1370 1365 1365 1368 1373 1376 1376 1381 1387 1386 1389 1400 1398
1545 1543 1540 1538 1537 1535 1532 1530 1528 1527 1525 1524 1523 1522 1520 1518 1517 1515 1513 1508 1502 1498 1494 1492 1490 1485 1482 1482 1481 1481 1479 1478 1477 1476 1475 1477 1478 1479 1478 1475 1473 1470 1469 1470 1469 1465 1463 1462 1458 1454 1450 1445 1440 1438 1434 1430 1426 1420 1414 1413 1409 1406 1404 1399 1400 1405 1398 1388 1388 1389 1385 1385 1386 1384 1378 1370 1367 1369 1372 1372 1373 1378 1385 1389 1396 1405 1402
1543 1541 1539 1536 1535 1533 1531 1529 1527 1526 1524 1523 1522 1521 1519 1518 1516 1515 1514 1509 1503 1498 1492 1489 1488 1484 1482 1483 1483 1481 1477 1476 1477 1476 1474 1475 1476 1476 1476 1475 1472 1469 1466 1466 1466 1464 1461 1459 1456 1452 1449 1444 1440 1437 1434 1432 1430 1425 1421 1418 1412 1410 1410 1402 1402 1410 1402 1387 1386 1389 1390 1397 1397 1385 1378 1377 1376 1375 1374 1375 1376 1378 1384 1392 1400 1402 1396
1541 1539 1537 1534 1532 1531 1529 1528 1526 1524 1523 1522 1521 1519 1518 1518 1515 1513 1513 1509 1502 1497 1491 1487 1485 1484 1482 1483 1481 1479 1477 1475 1476 1476 1474 1472 1472 1473 1474 1472 1471 1468 1465 1463 1462 1461 1459 1456 1452 1449 1446 1442 1438 1435 1433 1430 1429 1427 1426 1422 1416 1415 1415 1405 1399 1404 1400 1387 1385 1391 1399 1405 1395 1377 1372 1378 1380 1380 1381 1382 1382 1381 1383 1388 1392 1391 1388
1538 1536 1534 1532 1530 1528 1526 1525 1523 1522 1521 1521 1519 1517 1516 1516 1514 1512 1512 1508 1501 1496 1493 1488 1484 1483 1482 1481 1480 1479 1477 1476 1474 1474 1473 1470 1469 1470 1468 1468 1468 1466 1463 1461 1459 1457 1454 1450 1447 1442 1440 1439 1436 1434 1432 1430 1428 1427 1425 1424 1421 1418 1417 1411 1404 1402 1395 1387 1395 1409 1410 1396 1381 1373 1373 1374 1376 1379 1384 1384 1381 1380 1383 1385 1388 1389 1389
1536 1534 1531 1529 1527 1525 1523 1521 1520 1518 1518 1518 1516 1514 1513 1514 1513 1511 1510 1508 1501 1496 1493 1488 1485 1484 1483 1480 1479 1478 1477 1476 1475 1473 1472 1469 1468 1467 1465 1465 1465 1463 1462 1460 1458 1456 1453 1448 1444 1440 1435 1432 1431 1431 1430 1428 1428 1426 1424 1423 1423 1422 1419 1414 1409 1406 1398 1393 1403 1415 1407 1386 1376 1376 1377 1377 1378 1380 1385 1388 1384 1380 1381 1383 1386 1388 1387
1533 1531 1528 1526 1524 1522 1519 1518 1516 1515 1515 1514 1513 1511 1511 1511 1510 1509 1509 1507 1500 1496 1494 1490 1486 1484 1482 1480 1479 1478 1476 1475 1473 1471 1470 1469 1467 1466 1465 1464 1463 1462 1462 1460 1457 1455 1452 1447 1444 1439 1434 1431 1431 1429 1425 1424 1424 1423 1422 1422 1422 1423 1422 1416 1412 1409 1404 1400 1400 1400 1398 1392 1387 1384 1383 1384 1383 1381 1384 1390 1386 1379 1378 1381 1385 1388 1388
1530 1528 1525 1523 1520 1518 1516 1514 1513 1511 1511 1511 1509 1507 1507 1507 1506 1506 1506 1505 1501 1497 1494 1490 1487 1484 1483 1481 1480 1478 1475 1473 1471 1469 1468 1467 1467 1466 1464 1463 1462 1461 1461 1459 1457 1454 1450 1447 1446 1441 1433 1430 1430 1425 1418 1417 1418 1418 1420 1420 1421 1423 1422 1420 1419 1412 1404 1404 1402 1400 1403 1402 1391 1385 1384 1383 1382 1379 1382 1390 1389 1380 1378 1382 1387 1392 1394
1527 1524 1522 1519 1516 1514 1512 1510 1509 1508 1507 1507 1505 1502 1502 1503 1503 1502 1502 1503 1502 1496 1490 1488 1488 1487 1484 1481 1480 1479 1476 1473 1472 1469 1465 1464 1465 1465 1464 1463 1461 1460 1459 1458 1456 1452 1448 1447 1446 1439 1429 1426 1424 1418 1412 1412 1413 1414 1416 1418 1421 1424 1423 1422 1423 1416 1407 1409 1411 1406 1403 1394 1382 1380 1381 1381 1381 1380 1385 1400 1399 1385 1381 1386 1389 1392 1395
1524 1521 1518 1516 1513 1510 1509 1507 1506 1505 1504 1503 1501 1499 1497 1498 1499 1499 1498 1500 1499 1493 1487 1488 1490 1488 1485 1481 1479 1478 1477 1475 1474 1471 1467 1465 1465 1464 1464 1462 1460 1459 1458 1456 1453 1449 1447 1446 1444 1437 1429 1425 1423 1418 1414 1412 1411 1413 1416 1418 1420 1425 1425 1424 1426 1421 1413 1414 1412 1403 1395 1388 1382 1380 1380 1382 1384 1384 1395 1411 1406 1390 1388 1393 1393 1393 1395
1520 1517 1515 1512 1509 1507 1505 1504 1503 1502 1501 1500 1498 1495 1493 1494 1495 1495 1495 1496 1496 1490 1487 1489 1490 1486 1484 1482 1480 1479 1478 1476 1475 1473 1469 1465 1464 1465 1464 1462 1460 1458 1457 1457 1454 1449 1446 1445 1442 1438 1433 1428 1425 1422 1418 1416 1415 1414 1416 1419 1421 1424 1425 1425 1425 1421 1416 1416 1414 1403 1391 1387 1386 1385 1385 1387 1388 1393 1405 1413 1406 1398 1399 1399 1397 1397 1398
1516 1513 1511 1508 1505 1503 1502 1501 1499 1498 1497 1496 1494 1491 1489 1490 1491 1491 1491 1493 1492 1488 1485 1487 1487 1485 1484 1483 1481 1479 1478 1477 1476 1474 1470 1464 1463 1465 1463 1460 1460 1460 1459 1461 1457 1447 1443 1443 1439 1437 1436 1432 1430 1427 1424 1422 1422 1421 1420 1420 1420 1422 1424 1425 1424 1420 1414 1413 1414 1409 1397 1390 1388 1390 1391 1392 1396 1405 1412 1411 1406 1404 1403 1401 1400 1400 1400
1512 1509 1507 1504 1502 1500 1498 1497 1495 1494 1493 1493 1491 1487 1485 1486 1488 1488 1488 1489 1489 1485 1483 1484 1485 1483 1483 1482 1481 1479 1477 1476 1475 1474 1471 1466 1465 1466 1461 1459 1462 1462 1460 1462 1460 1450 1446 1445 1440 1437 1436 1434 1432 1432 1430 1425 1424 1425 1426 1424 1420 1418 1420 1421 1420 1419 1416 1413 1414 1415 1408 1399 1395 1394 1396 1399 1405 1412 1414 1410 1408 1407 1404 1403 1403 1401 1400
1508 1506 1503 1501 1499 1497 1495 1493 1492 1490 1489 1489 1487 1484 1482 1482 1484 1484 1484 1485 1486 1483 1480 1480 1480 1480 1480 1479 1478 1478 1477 1475 1474 1474 1471 1469 1469 1468 1463 1460 1463 1462 1459 1461 1461 1456 1452 1449 1443 1439 1438 1435 1434 1435 1434 1430 1425 1422 1424 1427 1425 1422 1421 1417 1412 1413 1416 1414 1411 1411 1411 1406 1402 1400 1404 1408 1411 1412 1413 1411 1409 1409 1408 1407 1406 1403 1403
1505 1502 1500 1498 1495 1493 1491 1489 1488 1486 1485 1485 1483 1481 1479 1479 1479 1480 1481 1481 1481 1478 1476 1476 1477 1477 1476 1475 1474 1474 1474 1473 1473 1473 1472 1471 1469 1468 1465 1462 1462 1462 1460 1459 1459 1457 1456 1453 1447 1443 1442 1439 1436 1435 1435 1434 1430 1424 1423 1427 1427 1424 1424 1423 1418 1415 1415 1412 1408 1410 1412 1410 1408 1407 1408 1411 1412 1412 1413 1412 1410 1410 1409 1408 1407 1407 1406
1502 1499 1497 1495 1492 1489 1487 1485 1484 1482 1481 1480 1479 1477 1476 1475 1476 1476 1477 1476 1476 1474 1473 1474 1475 1473 1471 1471 1470 1470 1470 1471 1471 1471 1472 1472 1469 1467 1465 1463 1462 1462 1461 1461 1460 1458 1457 1456 1451 1448 1446 1443 1439 1437 1436 1433 1429 1425 1424 1426 1425 1424 1426 1428 1424 1420 1418 1413 1410 1412 1413 1412 1412 1412 1411 1413 1414 1413 1413 1413 1412 1411 1410 1409 1409 1408 1406
1499 1496 1494 1491 1488 1486 1483 1481 1480 1479 1477 1476 1475 1474 1472 1472 1472 1473 1473 1473 1474 1474 1472 1472 1471 1469 1467 1467 1468 1467 1467 1468 1468 1469 1470 1470 1469 1466 1464 1463 1463 1462 1462 1462 1462 1460 1458 1456 1454 1453 1449 1444 1440 1440 1439 1435 1430 1428 1427 1425 1423 1423 1426 1426 1423 1422 1423 1418 1411 1409 1411 1413 1415 1417 1416 1415 1416 1415 1414 1414 1413 1412 1411 1411 1410 1409 1407
1496 1493 1491 1488 1485 1482 1480 1478 1476 1475 1473 1472 1472 1470 1469 1469 1469 1470 1471 1471 1472 1473 1471 1468 1466 1466 1465 1465 1465 1465 1466 1466 1466 1467 1468 1468 1467 1466 1464 1463 1464 1464 1463 1463 1463 1462 1460 1457 1454 1453 1449 1445 1443 1442 1439 1437 1435 1434 1432 1429 1424 1424 1426 1425 1421 1422 1423 1419 1412 1410 1412 1414 1417 1419 1418 1416 1416 1416 1415 1415 1414 1414 1413 1412 1412 1411 1409
1494 1491 1488 1485 1482 1479 1476 1474 1472 1471 1470 1468 1467 1467 1466 1466 1466 1467 1468 1469 1470 1472 1471 1467 1464 1464 1464 1463 1463 1463 1464 1465 1465 1465 1466 1466 1466 1465 1465 1465 1465 1464 1464 1464 1463 1462 1460 1458 1455 1452 1449 1446 1444 1441 1438 1437 1436 1434 1432 1430 1427 1427 1428 1427 1423 1422 1421 1418 1414 1414 1414 1414 1414 1416 1415 1415 1415 1416 1416 1416 1415 1415 1414 1413 1412 1412 1411
1491 1489 1486 1482 1479 1475 1473 1471 1469 1468 1466 1465 1464 1464 1464 1464 1463 1464 1465 1466 1468 1469 1467 1464 1463 1463 1462 1460 1460 1460 1462 1463 1463 1464 1464 1464 1464 1465 1465 1465 1464 1464 1464 1463 1462 1462 1460 1458 1455 1453 1449 1447 1445 1442 1438 1436 1435 1432 1429 1426 1426 1427 1426 1425 1425 1424 1421 1417 1415 1415 1415 1412 1410 1412 1413 1414 1416 1416 1416 1416 1416 1415 1415 1414 1413 1411 1411
1489 1486 1482 1479 1476 1473 1471 1469 1468 1466 1465 1464 1462 1462 1463 1463 1462 1462 1463 1464 1465 1465 1463 1462 1462 1462 1461 1458 1457 1458 1459 1460 1461 1462 1462 1462 1462 1463 1463 1463 1463 1463 1463 1462 1461 1461 1459 1456 1453 1450 1448 1447 1445 1441 1436 1434 1433 1430 1425 1422 1423 1424 1423 1422 1422 1420 1416 1414 1413 1414 1414 1413 1412 1413 1414 1415 1416 1417 1416 1416 1416 1416 1416 1415 1414 1412 1410
1486 1483 1480 1477 1474 1472 1470 1469 1467 1465 1464 1463 1462 1462 1463 1463 1462 1462 1462 1462 1463 1464 1464 1463 1462 1460 1459 1457 1456 1457 1458 1458 1459 1460 1460 1460 1460 1461 1461 1462 1462 1462 1461 1461 1460 1458 1456 1454 1452 1449 1448 1448 1446 1440 1435 1433 1431 1425 1420 1418 1420 1421 1421 1421 1421 1418 1415 1414 1414 1414 1415 1415 1415 1415 1414 1414 1415 1416 1415 1415 1415 1415 1415 1415 1414 1413 1411
1484 1480 1478 1475 1473 1472 1470 1468 1467 1465 1464 1463 1462 1462 1463 1463 1463 1463 1462 1462 1463 1463 1464 1463 1461 1458 1457 1456 1455 1456 1456 1456 1457 1458 1458 1458 1459 1459 1460 1460 1460 1461 1461 1460 1459 1457 1455 1452 1450 1449 1448 1448 1447 1442 1436 1432 1426 1419 1415 1416 1417 1418 1418 1419 1419 1417 1416 1415 1416 1416 1416 1416 1415 1414 1413 1413 1414 1414 1414 1413 1414 1414 1414 1413 1413 1412 1411
1481 1479 1476 1474 1473 1471 1470 1468 1467 1465 1464 1464 1463 1463 1463 1463 1463 1463 1462 1462 1462 1463 1464 1463 1460 1458 1455 1454 1454 1454 1455 1455 1455 1455 1456 1456 1456 1457 1458 1459 1459 1459 1459 1458 1457 1456 1454 1451 1449 1448 1447 1448 1447 1442 1437 1433 1428 1419 1414 1414 1414 1414 1414 1415 1415 1415 1415 1415 1416 1416 1415 1415 1414 1413 1411 1411 1412 1413 1412 1412 1412 1412 1412 1411 1411 1410 1409
1479 1477 1475 1474 1473 1471 1470 1469 1467 1466 1466 1466 1465 1465 1464 1464 1464 1463 1462 1462 1463 1463 1464 1463 1461 1457 1454 1452 1453 1453 1454 1454 1454 1453 1453 1454 1454 1455 1456 1457 1457 1457 1457 1457 1457 1455 1453 1451 1449 1447 1446 1448 1447 1443 1439 1436 1429 1418 1413 1413 1413 1413 1413 1413 1412 1412 1412 1413 1413 1412 1410 1410 1410 1408 1407 1408 1409 1410 1410 1409 1410 1410 1409 1408 1408 1408 1407
1478 1476 1475 1474 1473 1472 1470 1469 1468 1467 1467 1466 1466 1465 1464 1464 1463 1463 1463 1463 1463 1464 1464 1463 1461 1458 1454 1452 1452 1452 1452 1452 1452 1452 1452 1452 1453 1454 1454 1455 1456 1456 1456 1456 1455 1453 1451 1450 1449 1447 1446 1446 1447 1446 1442 1435 1427 1419 1416 1416 1414 1412 1411 1410 1410 1409 1408 1408 1409 1407 1405 1404 1405 1405 1405 1405 1406 1407 1407 1407 1407 1407 1406 1406 1406 1405 1405
1477 1476 1475 1474 1473 1472 1471 1469 1468 1467 1468 1467 1467 1466 1465 1464 1463 1463 1463 1464 1464 1464 1464 1463 1462 1459 1454 1451 1450 1451 1452 1451 1451 1451 1451 1451 1452 1452 1453 1454 1455 1455 1454 1454 1453 1451 1450 1448 1448 1447 1445 1445 1446 1445 1439 1431 1425 1423 1421 1417 1413 1411 1409 1405 1403 1403 1402 1402 1402 1402 1401 1401 1402 1402 1402 1402 1402 1403 1403 1403 1404 1404 1404 1403 1403 1402 1403
1477 1476 1475 1474 1474 1472 1471 1470 1469 1469 1470 1469 1468 1466 1465 1464 1464 1463 1464 1465 1465 1465 1465 1464 1463 1461 1456 1450 1448 1450 1452 1451 1450 1450 1451 1452 1452 1452 1452 1453 1455 1454 1453 1453 1452 1450 1449 1448 1448 1446 1444 1443 1444 1442 1436 1429 1427 1425 1420 1413 1408 1406 1403 1398 1395 1395 1396 1396 1396 1396 1397 1398 1397 1397 1397 1398 1398 1399 1400 1400 1401 1401 1401 1400 1400 1400 1401
1477 1476 1475 1475 1474 1472 1471 1471 1472 1472 1472 1470 1468 1467 1466 1465 1464 1464 1464 1465 1465 1465 1465 1464 1463 1462 1458 1454 1452 1452 1452 1451 1450 1450 1451 1452 1452 1452 1452 1454 1454 1453 1453 1452 1451 1450 1449 1449 1448 1445 1443 1442 1442 1439 1435 1431 1426 1419 1412 1405 1400 1397 1393 1389 1387 1388 1389 1390 1390 1391 1392 1392 1391 1392 1393 1393 1393 1395 1396 1396 1397 1398 1397 1397 1397 1398 1399
1478 1477 1476 1475 1473 1473 1473 1473 1473 1472 1471 1470 1468 1467 1466 1465 1464 1465 1465 1465 1465 1465 1465 1465 1464 1462 1461 1459 1456 1453 1452 1451 1450 1450 1451 1452 1453 1452 1453 1454 1454 1453 1453 1452 1451 1450 1449 1448 1447 1445 1443 1443 1441 1437 1433 1428 1420 1411 1403 1395 1389 1386 1382 1380 1380 1382 1382 1382 1383 1384 1385 1385 1385 1385 1387 1387 1388 1390 1391 1391 1392 1394 1394 1394 1395 1396 1397
1478 1477 1476 1475 1474 1474 1475 1474 1473 1471 1470 1469 1468 1466 1466 1465 1465 1465 1465 1465 1465 1465 1465 1465 1464 1463 1462 1461 1458 1455 1454 1453 1450 1450 1451 1453 1453 1452 1453 1454 1454 1453 1453 1451 1450 1449 1447 1445 1445 1444 1443 1440 1438 1433 1428 1421 1413 1404 1396 1388 1381 1377 1374 1371 1372 1374 1374 1373 1374 1375 1376 1376 1376 1377 1379 1380 1382 1384 1386 1386 1388 1390 1390 1391 1392 1393 1395
1479 1478 1477 1477 1477 1477 1476 1475 1474 1472 1470 1468 1467 1466 1466 1465 1465 1465 1464 1465 1465 1465 1465 1464 1464 1463 1463 1462 1459 1457 1456 1454 1452 1451 1452 1453 1453 1453 1454 1454 1454 1454 1453 1451 1449 1448 1447 1445 1445 1443 1441 1438 1435 1430 1423 1416 1408 1399 1392 1384 1376 1370 1366 1364 1364 1365 1365 1364 1365 1366 1367 1367 1367 1369 1372 1375 1377 1379 1381 1382 1384 1385 1386 1388 1390 1391 1393
1479 1479 1479 1479 1479 1478 1477 1476 1474 1472 1470 1469 1468 1466 1465 1464 1464 1463 1463 1463 1463 1463 1463 1463 1463 1462 1463 1462 1460 1459 1457 1456 1455 1454 1454 1454 1455 1454 1454 1455 1456 1455 1454 1452 1449 1448 1448 1447 1444 1442 1440 1438 1434 1428 1422 1416 1408 1399 1390 1382 1374 1366 1362 1360 1358 1357 1357 1358 1359 1360 1361 1361 1362 1364 1367 1370 1372 1375 1376 1378 1380 1382 1383 1385 1387 1389 1392
1480 1480 1481 1480 1480 1478 1477 1476 1475 1473 1472 1470 1469 1467 1465 1464 1464 1463 1462 1462 1463 1462 1462 1461 1461 1461 1461 1461 1461 1460 1458 1457 1458 1457 1455 1455 1455 1455 1455 1456 1455 1455 1455 1454 1451 1449 1448 1447 1445 1443 1442 1439 1434 1429 1423 1417 1409 1401 1392 1383 1375 1367 1362 1358 1355 1354 1353 1354 1354 1355 1356 1357 1358 1360 1363 1366 1368 1371 1373 1375 1377 1379 1381 1383 1386 1389 1392
1482 1481 1481 1480 1480 1478 1478 1477 1476 1475 1474 1473 1472 1469 1466 1465 1465 1465 1465 1467 1467 1465 1461 1460 1460 1460 1460 1460 1460 1459 1458 1458 1458 1457 1456 1455 1455 1455 1454 1454 1454 1456 1458 1457 1452 1450 1450 1449 1448 1447 1444 1439 1434 1429 1424 1418 1412 1405 1397 1388 1380 1373 1366 1361 1357 1356 1354 1353 1354 1354 1354 1355 1356 1358 1361 1363 1366 1368 1371 1374 1376 1378 1380 1382 1385 1389 1392
1483 1482 1481 1481 1480 1479 1478 1478 1478 1477 1477 1477 1477 1475 1472 1468 1467 1466 1467 1468 1469 1466 1463 1461 1460 1459 1459 1459 1458 1458 1458 1457 1457 1456 1455 1454 1454 1454 1454 1454 1456 1457 1458 1457 1455 1455 1456 1457 1456 1453 1447 1440 1434 1430 1426 1422 1416 1409 1402 1394 1386 1379 1371 1365 1362 1359 1357 1356 1356 1356 1356 1356 1357 1358 1361 1363 1365 1368 1371 1373 1375 1377 1380 1382 1385 1388 1392
1484 1483 1482 1482 1480 1479 1480 1481 1480 1479 1480 1480 1479 1478 1477 1473 1470 1468 1468 1468 1468 1467 1465 1463 1461 1458 1457 1458 1458 1457 1456 1456 1456 1455 1454 1453 1452 1453 1455 1458 1459 1457 1456 1457 1459 1460 1461 1461 1460 1455 1450 1443 1437 1432 1429 1425 1420 1414 1408 1400 1392 1384 1378 1372 1369 1366 1364 1361 1360 1360 1359 1359 1360 1361 1362 1364 1366 1369 1371 1373 1374 1377 1380 1382 1384 1388 1391
1487 1485 1484 1483 1481 1480 1483 1485 1482 1479 1478 1478 1477 1476 1477 1475 1473 1471 1470 1469 1468 1466 1465 1465 1463 1460 1459 1458 1457 1456 1454 1453 1455 1455 1453 1452 1453 1455 1458 1460 1460 1458 1458 1461 1464 1464 1463 1462 1459 1455 1450 1446 1441 1436 1432 1429 1424 1419 1413 1406 1400 1394 1389 1383 1379 1377 1375 1372 1370 1368 1367 1365 1365 1366 1365 1366 1368 1370 1372 1374 1376 1378 1380 1383 1387 1390 1392
1489 1487 1485 1484 1482 1481 1482 1484 1482 1479 1478 1478 1477 1476 1476 1475 1474 1473 1472 1470 1469 1468 1467 1466 1465 1463 1461 1459 1457 1456 1454 1453 1454 1455 1454 1454 1457 1460 1461 1462 1463 1463 1465 1467 1468 1468 1468 1465 1460 1456 1453 1449 1445 1441 1437 1433 1429 1424 1419 1414 1409 1405 1400 1395 1391 1388 1386 1383 1380 1378 1376 1375 1374 1373 1371 1371 1373 1373 1373 1375 1378 1379 1381 1386 1391 1392 1393
1491 1488 1486 1486 1485 1483 1481 1483 1483 1482 1481 1481 1480 1479 1477 1476 1475 1475 1474 1472 1470 1469 1468 1466 1465 1465 1463 1460 1458 1458 1457 1456 1456 1457 1456 1458 1461 1463 1463 1465 1469 1471 1471 1473 1473 1472 1469 1466 1462 1459 1456 1452 1448 1444 1440 1436 1433 1429 1425 1422 1418 1413 1409 1406 1403 1400 1397 1393 1390 1388 1387 1385 1382 1379 1379 1380 1381 1380 1379 1380 1382 1383 1386 1391 1395 1394 1394
1492 1490 1488 1488 1488 1487 1485 1485 1484 1483 1483 1483 1482 1480 1479 1478 1477 1476 1475 1473 1471 1469 1468 1466 1465 1464 1464 1461 1460 1459 1457 1456 1459 1460 1460 1460 1463 1466 1467 1471 1474 1475 1475 1476 1476 1474 1470 1467 1464 1462 1458 1455 1452 1448 1444 1441 1438 1434 1431 1428 1425 1421 1417 1414 1411 1409 1407 1404 1402 1400 1398 1394 1390 1388 1388 1387 1387 1387 1387 1387 1388 1390 1392 1396 1397 1397 1399
1494 1491 1489 1489 1488 1488 1488 1487 1485 1483 1483 1484 1484 1482 1481 1480 1479 1478 1477 1474 1471 1470 1469 1467 1465 1464 1463 1462 1461 1461 1460 1459 1460 1461 1461 1462 1466 1469 1472 1476 1479 1478 1477 1478 1478 1475 1472 1469 1466 1464 1461 1458 1455 1452 1449 1446 1443 1440 1437 1434 1431 1428 1425 1423 1420 1417 1415 1413 1411 1409 1408 1405 1402 1400 1398 1396 1395 1395 1396 1395 1395 1397 1399 1401 1402 1403 1405
1496 1494 1493 1491 1490 1490 1490 1489 1487 1485 1486 1486 1486 1485 1483 1482 1481 1480 1478 1476 1473 1471 1469 1467 1466 1465 1464 1462 1462 1464 1465 1463 1462 1463 1466 1467 1468 1470 1474 1479 1482 1482 1480 1479 1477 1476 1474 1471 1468 1466 1464 1461 1458 1456 1453 1450 1448 1445 1442 1440 1437 1434 1432 1429 1427 1425 1423 1421 1419 1417 1415 1414 1412 1411 1409 1408 1407 1407 1407 1406 1406 1407 1409 1410 1411 1411 1413
1498 1497 1496 1496 1495 1494 1493 1492 1491 1490 1490 1489 1489 1488 1487 1485 1484 1483 1481 1478 1475 1471 1470 1469 1468 1467 1467 1468 1468 1469 1468 1467 1466 1469 1472 1472 1472 1474 1478 1481 1481 1481 1480 1479 1478 1477 1475 1473 1471 1469 1467 1464 1461 1459 1456 1454 1452 1450 1447 1445 1442 1440 1437 1435 1433 1431 1429 1428 1426 1424 1423 1422 1421 1420 1419 1418 1418 1417 1416 1416 1417 1418 1418 1418 1419 1419 1421
1499 1498 1498 1499 1500 1499 1497 1496 1495 1494 1493 1493 1493 1492 1490 1489 1487 1486 1483 1480 1477 1474 1473 1472 1471 1470 1472 1474 1473 1471 1470 1471 1472 1475 1477 1478 1479 1481 1483 1483 1481 1480 1479 1479 1478 1477 1476 1474 1473 1471 1469 1467 1465 1463 1460 1457 1455 1453 1451 1449 1447 1445 1442 1441 1439 1437 1435 1433 1431 1430 1429 1428 1427 1427 1426 1425 1425 1424 1424 1425 1426 1426 1425 1425 1425 1425 1426